Content
SEND FEEDBACK

Daily
Averages
Monthly
Summary
Canada

QUEBEC CITY, QUEBEC


Home > North America > Canada > Quebec
Elevation: 72 meters     Latitude: 46 48N     Longitude: 071 23W

WEATHER
 
SELECT A DAY
Number of Records: 191,965;   Date Range: 6/30/96 - 7/20/14
 
SHARE

PRINT THIS DATA

[ ← Previous Day ]
WEATHER ALMANAC - 28 JANUARY, 2013
[ Next Day → ]
[ °F ]   °C
Weather ElementAverageHighLow
Temperature-13.8 °C-9 °C (4:00 pm)-21.7 °C (7:00 am)
Dewpoint-19.8 °C-15 °C (10:00 pm)-25 °C (7:00 am)
Humidity59.3 %73 % (7:00 am)40 % (4:00 pm)
Barometer1025.4 hPa1030.8 hPa (1:00 am)1018.3 hPa (10:00 pm)
Wind Speed8.7 km/h27.8 km/h (5:00 am)
Weather ElementAverage
Visibility29 km
Wind DirectionS (177 °)

Weather ElementTotal
Precipitation---
Heating Degree Days33.7 (Base 18.3)
Averaged from 31 records on 28 January, 2013
WEATHER CONDITIONS BREAKOUT
WIND DIRECTION BREAKOUT
WEATHER BY HOUR - 28 JANUARY, 2013
[ °F ]   °C
Local TimeTemperatureDewpointHumidityBarometerVisibilityWind DirectionWind SpeedGust SpeedPrecipitationEventsConditions
1:00 AM-18.3 °C-21.7 °C64 %1030.5 hPaWest (270°)9.3 km/h
1:00 AM-17 °C-23 °C61 %1030.8 hPa24.1 kmSW (230°)22.2 km/hScattered Clouds
2:00 AM-18 °C-22 °C72 %1030.8 hPa24.1 kmWSW (250°)25.9 km/hScattered Clouds
3:00 AM-18 °C-23 °C66 %1030.5 hPa24.1 kmWSW (250°)25.9 km/hPartly Cloudy
4:00 AM-17.8 °C-20.6 °C68 %1030.1 hPaWest (260°)11.1 km/h
4:00 AM-18 °C-22 °C72 %1030.1 hPa24.1 kmWSW (250°)24.1 km/hPartly Cloudy
5:00 AM-18 °C-23 °C66 %1030.1 hPa24.1 kmWest (260°)27.8 km/hScattered Clouds
6:00 AM-17 °C-23 °C61 %1030.1 hPa24.1 kmWest (280°)7.4 km/hPartly Cloudy
7:00 AM-21.7 °C-23.9 °C73 %1029.5 hPaNW (320°)3.7 km/h
7:00 AM-20 °C-25 °C65 %1029.8 hPa24.1 kmCalmMostly Cloudy
8:00 AM-17 °C-21 °C72 %1029.5 hPa24.1 kmWSW (240°)13 km/hMostly Cloudy
9:00 AM-16 °C-21 °C66 %1029.1 hPa24.1 kmWest (270°)7.4 km/hMostly Cloudy
10:00 AM-15 °C-18.3 °C66 %1028.4 hPaWest (280°)3.7 km/h
10:00 AM-14 °C-20 °C61 %1028.8 hPa24.1 kmWest (260°)5.6 km/hMostly Cloudy
11:00 AM-13 °C-18 °C67 %1027.8 hPa24.1 kmSSE (150°)3.7 km/hMostly Cloudy
12:00 PM-11 °C-19 °C53 %1026.4 hPa24.1 kmSW (220°)3.7 km/hMostly Cloudy
1:00 PM-11.7 °C-16.7 °C53 %1024.7 hPaWest (280°)3.7 km/h
1:00 PM-11 °C-18 °C57 %1025.1 hPa48.3 kmWSW (240°)7.4 km/hMostly Cloudy
2:00 PM-10 °C-19 °C49 %1023.4 hPa48.3 kmNW (310°)3.7 km/hMostly Cloudy
3:00 PM-10 °C-19 °C49 %1022.7 hPa48.3 kmCalmMostly Cloudy
4:00 PM-10 °C-17.8 °C40 %1021.3 hPaCalm
4:00 PM-9 °C-19 °C45 %1021.7 hPa48.3 kmNorth (10°)7.4 km/hMostly Cloudy
5:00 PM-11 °C-19 °C53 %1021 hPa48.3 kmSSE (150°)3.7 km/hMostly Cloudy
6:00 PM-10 °C-19 °C49 %1020.3 hPa24.1 kmNorth (350°)7.4 km/hMostly Cloudy
7:00 PM-12.8 °C-17.8 °C54 %1019.6 hPaNE (50°)1.9 km/h
7:00 PM-10 °C-20 °C45 %1019.6 hPa24.1 kmNorth (10°)7.4 km/hMostly Cloudy
8:00 PM-11 °C-19 °C53 %1019.3 hPa24.1 kmNNE (30°)7.4 km/hMostly Cloudy
9:00 PM-10 °C-18 °C53 %1019.3 hPa24.1 kmNNE (30°)7.4 km/hOvercast
10:00 PM-10.6 °C-15 °C57 %1018.3 hPaNNE (20°)1.9 km/h
10:00 PM-10 °C-16 °C62 %1018.6 hPa24.1 kmNorth (10°)7.4 km/hOvercast
11:00 PM-10 °C-15 °C67 %1019 hPa16.1 kmNNE (30°)5.6 km/hOvercast
Hourly data recorded from CYQB, located 0 kilometers away from Quebec City, Quebec







STORIES FROM OUR PARTNERS